Zurück zum Katalog

ONEWEB-0601

AktivKommunikationPO
NORAD 54665·PAYLOAD·🇬🇧 United Kingdom

Gestartet Dec 8, 2022 von Cape Canaveral Space Force Station

Loading…

Nächste Überflüge (nächste 24 Stunden)

TLE

AktuellSource: CelesTrak SupGP

Epoche: Sep 14, 2026, 14:32 UTC

1 54665C 22166Z   26257.60606898 -.00001838  00000+0 -44559-2 0  2575
2 54665  87.9276 226.1921 0002334  87.5393  24.5962 13.21828190    11

Verfolge ONEWEB-0601 in Echtzeit mit AllMySat

Download on the App Store